Temp
-2 -2 -2 -1 -1 -0 -1 -0 1 1 2 2 0 2 4 5 6 6 6 6 6 7 8 8 10 10 11 11 11 11 11 9 9 12 14 15 15 15 13 11 12 9 8 13
-2 -2 -2 -1 -1 -0 -1 -0 0 1 2 2 2 2 3 4 5 5 6 6 6 8 8 7 9 9 10 11 10 11 11 10 9 12 14 10 11 12 11 11 10 11 9 12
-2 -2 -2 -1 -1 -0 -1 -1 0 1 1 2 3 2 2 3 4 4 4 4 5 6 6 7 7 7 9 11 10 11 11 9 10 9 10 9 9 10 11 11 9 11 12 13
-3 -2 -2 -1 -1 -1 -1 -1 -1 1 2 1 2 3 4 3 4 4 5 4 4 4 4 4 7 8 8 10 10 10 10 9 9 10 10 9 10 10 11 11 10 10 12 12
-3 -2 -2 -1 -1 -1 -1 -1 -0 0 2 3 2 2 2 4 4 5 4 3 5 4 4 5 5 6 7 7 8 9 8 8 7 7 9 9 9 10 10 11 11 11 12 12
-2 -2 -2 -1 -1 -1 -1 -1 -1 1 2 2 2 3 3 3 5 5 5 4 4 4 5 5 6 6 6 5 6 6 7 7 6 7 8 9 7 9 11 11 12 11 11 11
-2 -2 -2 -1 -1 -1 -1 -1 -1 -0 1 1 2 3 3 4 4 4 5 5 4 5 6 6 6 6 5 5 4 5 6 5 4 5 6 7 10 10 11 10 11 10 10 11
-2 -2 -1 -1 -1 -1 -1 -1 -1 -0 1 2 2 3 2 4 4 4 5 5 5 5 6 3 4 3 4 5 5 6 6 3 3 4 5 7 9 10 10 10 12 11 11 10
-2 -2 -1 -1 -1 -1 -1 -1 -1 -0 1 1 3 2 2 2 2 3 4 5 6 5 3 2 4 3 6 5 7 6 5 5 5 5 4 4 9 10 10 10 8 9 9 9
-1 -1 -1 -1 -1 -1 -1 -1 -1 -0 -0 1 2 2 2 2 3 2 3 3 4 5 2 3 3 3 6 5 6 6 5 5 6 6 6 6 7 9 10 9 8 9 10 9
-1 -1 -1 -1 -1 -1 -1 -1 -0 -0 -0 0 1 2 2 2 2 2 3 3 2 2 2 2 2 1 4 5 5 5 5 4 5 6 6 5 9 9 9 9 11 11 11 11
-1 -1 -1 -1 -1 -1 -1 -1 -0 -0 -0 -0 1 2 2 3 4 4 4 5 3 3 2 1 1 1 -1 4 4 5 5 5 4 5 6 7 9 10 12 11 10 10 10 11
-0 -0 -0 -1 -0 -1 -1 -1 -1 -1 -1 -0 0 1 2 2 2 4 4 4 6 5 6 2 2 3 -0 2 2 5 5 6 5 5 7 7 10 11 11 10 10 11 11 12
-0 0 0 -0 0 -0 -0 -0 -1 -0 -1 -0 0 1 3 4 3 3 4 4 5 5 6 4 1 1 4 1 4 3 5 5 6 6 7 7 10 9 7 9 10 10 10 11
1 1 0 0 1 0 -0 0 -0 -0 1 -0 1 2 3 2 3 3 3 3 4 4 4 2 2 2 4 2 3 3 4 4 4 4 3 3 4 6 5 6 7 6 8 10
0 1 1 0 1 -0 0 -1 -0 -0 0 0 -1 2 2 3 3 3 3 3 3 3 3 3 5 6 6 1 0 3 2 2 2 3 3 3 3 4 4 4 7 7 4 8
0 0 1 0 0 0 0 0 1 -0 -0 -0 -0 -1 2 3 3 3 2 4 3 2 3 3 3 4 5 -0 1 0 -1 -0 1 1 1 3 2 1 1 2 7 5 3 3
1 0 1 0 0 0 0 1 2 -0 -0 -0 -2 1 2 2 2 3 3 3 3 3 1 2 3 3 1 2 -2 -3 -3 -2 1 -0 0 0 0 0 1 -1 2 2 0 -0
0 0 0 0 -0 -0 0 0 -0 -0 1 -0 -0 1 2 2 2 3 4 4 1 2 2 2 3 -1 -3 -4 -4 -4 -5 -4 -3 -2 -1 -0 -1 -2 -1 -1 -1 -4 -6 -5
-0 -0 -0 -0 0 0 0 -0 0 -0 0 -0 -2 -0 1 1 0 0 1 1 1 2 1 -1 -2 -3 -5 -6 -6 -6 -6 -6 -5 -4 -3 -4 -4 -5 -5 -4 -6 -7 -7 -7
0 -0 0 -0 -0 0 -0 -1 -0 -1 0 -0 -0 -0 1 1 1 1 1 0 -1 3 2 -0 -2 -4 -5 -6 -7 -8 -7 -7 -6 -6 -6 -6 -6 -7 -7 -7 -7 -7 -8 -8
1 -0 -0 0 0 -1 -1 -1 -1 0 1 -1 -0 0 -0 0 2 1 1 1 0 2 -2 -3 -5 -5 -7 -7 -8 -8 -8 -8 -7 -7 -8 -8 -8 -8 -8 -9 -9 -9 -8 -8
2 0 -1 -1 -5 -6 -5 0 -1 -1 -2 -2 -1 -0 -0 0 1 1 1 2 0 -2 -4 -5 -6 -7 -8 -8 -9 -9 -9 -9 -9 -10 -9 -9 -9 -9 -8 -9 -10 -10 -9 -9
-1 -4 -8 -9 -9 -7 -5 -6 -5 -4 -3 -3 -1 -0 -0 -1 -0 -1 -1 -4 -4 -6 -8 -7 -7 -8 -9 -9 -10 -10 -10 -10 -10 -10 -10 -9 -9 -9 -9 -9 -9 -9 -9 -9
-5 -6 -9 -8 -7 -7 -6 -6 -5 -5 -4 -3 -1 -2 -2 -4 -3 -5 -4 -6 -8 -7 -9 -9 -9 -9 -9 -10 -10 -10 -10 -10 -10 -10 -10 -9 -9 -9 -9 -9 -9 -9 -10 -10
-6 -8 -8 -8 -8 -8 -8 -7 -6 -6 -4 -3 -2 -2 -5 -5 -5 -7 -8 -7 -9 -10 -11 -10 -9 -10 -10 -10 -10 -10 -10 -10 -10 -10 -10 -10 -9 -10 -10 -10 -10 -10 -10 -10
-7 -9 -9 -9 -9 -9 -9 -8 -8 -6 -4 -4 -4 -5 -5 -5 -7 -8 -8 -12 -12 -10 -10 -10 -10 -10 -10 -10 -10 -10 -10 -10 -10 -10 -10 -11 -11 -11 -10 -10 -11 -11 -11 -12
Height
1443 1445 1447 1449 1453 1457 1458 1458 1454 1451 1454 1458 1453 1451 1455 1455 1451 1450 1451 1450 1448 1443 1440 1439 1434 1433 1428 1423 1421 1422 1423 1431 1439 1430 1423 1423 1427 1431 1437 1451 1445 1451 1455 1433
1435 1437 1440 1443 1448 1451 1454 1450 1448 1448 1450 1442 1445 1449 1451 1455 1452 1450 1449 1447 1446 1442 1443 1448 1437 1434 1430 1427 1425 1426 1425 1433 1443 1432 1428 1431 1436 1435 1438 1437 1439 1443 1453 1436
1426 1429 1433 1436 1441 1445 1448 1446 1442 1441 1440 1436 1437 1443 1447 1449 1449 1450 1450 1450 1448 1446 1446 1443 1442 1439 1433 1432 1429 1427 1424 1433 1438 1445 1443 1442 1443 1440 1438 1440 1449 1439 1427 1424
1416 1420 1424 1428 1433 1437 1441 1436 1432 1430 1426 1429 1430 1436 1437 1443 1446 1447 1446 1448 1450 1452 1452 1450 1443 1439 1435 1431 1431 1429 1430 1435 1438 1437 1437 1439 1437 1437 1433 1436 1435 1437 1424 1421
1406 1410 1414 1419 1424 1428 1428 1424 1424 1426 1423 1422 1428 1429 1431 1434 1440 1442 1443 1447 1446 1448 1451 1448 1446 1443 1442 1438 1432 1431 1431 1438 1438 1442 1436 1434 1432 1432 1430 1424 1421 1419 1415 1410
1395 1399 1403 1408 1413 1418 1414 1415 1416 1420 1415 1419 1419 1417 1423 1429 1434 1435 1438 1442 1445 1446 1440 1441 1440 1440 1439 1440 1441 1440 1436 1437 1440 1438 1437 1437 1439 1426 1421 1416 1414 1413 1414 1408
1383 1388 1392 1396 1400 1403 1406 1404 1410 1414 1409 1411 1411 1413 1419 1423 1427 1431 1433 1438 1440 1437 1437 1437 1435 1435 1434 1435 1435 1437 1437 1440 1448 1449 1444 1444 1416 1410 1410 1412 1408 1405 1402 1395
1370 1374 1378 1382 1386 1390 1393 1396 1400 1404 1400 1406 1405 1410 1411 1416 1420 1425 1428 1429 1429 1437 1438 1441 1438 1440 1435 1431 1429 1429 1432 1442 1451 1454 1448 1431 1414 1406 1405 1406 1396 1397 1390 1388
1354 1359 1363 1368 1372 1377 1381 1385 1391 1395 1395 1389 1401 1404 1405 1408 1415 1423 1422 1426 1430 1434 1437 1441 1439 1441 1426 1429 1422 1423 1431 1434 1438 1445 1451 1450 1410 1401 1401 1401 1407 1396 1391 1389
1339 1344 1349 1354 1359 1364 1370 1373 1380 1387 1385 1388 1393 1396 1401 1406 1411 1416 1419 1423 1428 1432 1438 1437 1437 1437 1426 1427 1421 1426 1431 1434 1432 1434 1438 1425 1406 1400 1401 1410 1410 1391 1388 1385
1326 1331 1337 1342 1348 1354 1359 1366 1370 1378 1380 1384 1385 1390 1396 1401 1405 1411 1414 1423 1425 1430 1430 1432 1433 1437 1427 1425 1421 1423 1426 1434 1431 1431 1435 1429 1395 1400 1403 1397 1389 1389 1388 1384
1316 1322 1328 1334 1341 1347 1354 1359 1365 1371 1376 1379 1382 1386 1390 1393 1395 1401 1404 1404 1408 1412 1420 1424 1425 1431 1430 1420 1424 1415 1422 1417 1423 1421 1412 1397 1395 1391 1390 1390 1387 1386 1386 1381
1307 1313 1319 1326 1333 1340 1347 1354 1360 1368 1371 1376 1379 1380 1384 1389 1391 1397 1401 1402 1402 1403 1404 1408 1411 1414 1415 1422 1420 1409 1408 1407 1410 1410 1395 1394 1390 1388 1391 1388 1384 1382 1383 1374
1299 1304 1310 1317 1325 1334 1342 1348 1354 1364 1368 1373 1374 1376 1379 1382 1385 1390 1394 1397 1399 1401 1402 1402 1404 1409 1402 1411 1404 1407 1403 1402 1401 1397 1392 1391 1388 1390 1386 1383 1378 1377 1377 1373
1289 1295 1302 1311 1319 1329 1337 1343 1347 1356 1367 1369 1369 1370 1372 1375 1378 1382 1387 1392 1395 1398 1400 1402 1401 1398 1400 1400 1401 1403 1400 1401 1402 1399 1397 1397 1393 1390 1386 1381 1374 1376 1374 1371
1280 1287 1296 1305 1315 1326 1333 1337 1345 1351 1361 1368 1369 1366 1365 1369 1374 1379 1383 1386 1391 1394 1396 1396 1393 1393 1395 1403 1406 1399 1399 1400 1401 1398 1396 1394 1392 1390 1386 1381 1373 1375 1375 1370
1270 1278 1290 1302 1313 1323 1330 1333 1336 1348 1360 1364 1367 1363 1360 1362 1368 1374 1379 1382 1385 1389 1390 1390 1391 1391 1392 1396 1399 1401 1400 1399 1397 1396 1395 1391 1389 1390 1385 1378 1374 1376 1375 1368
1265 1276 1290 1303 1314 1324 1329 1332 1334 1346 1357 1361 1365 1358 1358 1359 1361 1368 1374 1377 1382 1384 1386 1382 1388 1391 1392 1394 1401 1401 1401 1398 1394 1393 1394 1394 1391 1387 1381 1381 1373 1374 1373 1368
1272 1283 1296 1305 1315 1321 1326 1334 1343 1350 1357 1357 1358 1355 1353 1354 1357 1362 1369 1371 1377 1380 1380 1382 1384 1392 1402 1404 1403 1401 1400 1401 1396 1392 1392 1392 1390 1386 1381 1379 1372 1376 1376 1374
1280 1293 1300 1311 1320 1325 1333 1345 1349 1353 1353 1352 1353 1351 1351 1353 1352 1358 1366 1368 1372 1375 1377 1379 1390 1402 1404 1404 1404 1403 1401 1399 1394 1392 1391 1389 1387 1385 1381 1374 1378 1378 1377 1376
1296 1302 1306 1318 1324 1331 1336 1343 1346 1350 1350 1350 1348 1348 1344 1349 1347 1351 1356 1363 1369 1369 1375 1379 1394 1403 1407 1407 1405 1403 1401 1397 1393 1392 1391 1388 1388 1385 1381 1379 1382 1380 1379 1378
1303 1308 1319 1324 1329 1333 1337 1340 1343 1343 1344 1346 1345 1345 1345 1347 1347 1352 1357 1361 1365 1369 1381 1388 1402 1406 1407 1406 1405 1403 1400 1395 1392 1392 1391 1390 1388 1387 1383 1384 1386 1382 1382 1383
1315 1318 1327 1334 1342 1350 1352 1339 1344 1345 1348 1348 1346 1347 1347 1349 1349 1353 1355 1359 1370 1379 1390 1403 1407 1409 1408 1407 1404 1405 1402 1399 1396 1396 1393 1391 1388 1388 1384 1387 1390 1390 1390 1390
1317 1326 1346 1352 1362 1359 1357 1356 1354 1353 1351 1350 1349 1349 1351 1353 1354 1359 1364 1378 1378 1396 1408 1410 1412 1412 1411 1410 1411 1408 1405 1404 1401 1400 1399 1396 1395 1395 1396 1398 1400 1400 1398 1397
1328 1339 1359 1362 1363 1361 1359 1356 1355 1354 1351 1351 1351 1353 1357 1362 1365 1373 1376 1387 1403 1402 1410 1412 1413 1414 1414 1414 1413 1413 1410 1408 1406 1405 1404 1404 1404 1404 1404 1407 1408 1407 1405 1405
1345 1358 1364 1364 1363 1361 1358 1357 1355 1353 1351 1352 1353 1357 1366 1374 1376 1385 1395 1394 1407 1412 1412 1414 1415 1416 1416 1417 1416 1415 1413 1412 1411 1412 1412 1412 1412 1412 1413 1413 1414 1413 1412 1412
1362 1372 1372 1370 1369 1368 1365 1362 1358 1355 1354 1357 1360 1368 1378 1379 1389 1397 1400 1411 1410 1411 1414 1416 1417 1418 1420 1420 1419 1419 1418 1418 1418 1418 1419 1420 1423 1421 1420 1418 1420 1420 1420 1419
Wind_Speed
29 26 21 18 14 13 16 15 5 10 17 11 4 9 5 6 4 4 8 4 6 3 5 4 3 4 5 18 6 4 3 3 4 10 7 5 1 2 6 4 5 4 2 6
29 26 23 20 16 16 16 7 9 9 30 8 9 3 9 6 3 3 3 3 2 1 1 3 3 4 6 20 8 3 1 2 2 1 1 6 5 3 6 4 3 7 4 4
30 27 25 22 20 21 20 7 3 13 28 14 14 8 9 8 11 7 2 3 3 3 4 2 4 6 3 14 5 6 2 3 4 2 2 3 3 6 5 1 3 4 9 5
32 29 27 25 25 24 24 13 6 7 6 11 8 14 9 14 8 11 2 3 5 1 2 5 3 4 6 3 5 4 1 4 3 3 5 4 8 9 6 5 6 7 8 12
33 30 29 29 29 27 30 11 7 9 4 12 14 15 13 17 17 10 7 6 2 6 8 8 7 6 1 4 6 3 4 1 3 4 9 10 11 7 8 6 5 8 11 14
31 31 31 32 31 31 27 28 23 14 12 5 13 14 15 17 12 14 25 10 8 8 13 13 21 19 19 9 4 7 3 3 2 2 2 3 7 7 12 7 5 5 5 10
36 35 35 35 36 39 39 19 20 9 7 12 11 15 18 17 19 14 17 25 6 6 3 14 8 16 18 12 12 11 2 3 2 1 0 3 6 3 5 8 9 8 7 6
39 39 39 39 39 42 43 33 25 17 9 11 14 14 11 24 27 21 17 16 32 14 6 4 4 2 2 5 13 9 6 4 2 3 3 7 10 6 6 8 17 5 8 7
42 41 40 40 41 41 42 45 40 18 4 14 22 8 16 10 12 14 21 30 17 8 2 3 3 3 3 3 3 6 6 3 3 3 2 5 4 3 5 3 9 3 5 6
41 40 39 38 37 39 42 32 45 26 8 17 24 11 9 8 10 4 6 15 12 16 2 3 4 3 3 3 5 5 5 1 8 3 3 7 6 6 1 2 6 13 10 10
34 34 34 35 33 35 38 37 30 42 12 13 18 25 16 12 16 4 8 6 6 3 6 3 4 3 4 3 4 6 6 6 4 4 4 8 7 2 6 7 11 11 19 17
26 27 27 27 28 29 31 23 28 37 15 4 28 22 30 25 33 28 23 12 9 13 3 3 2 2 1 6 3 1 3 6 6 8 7 4 7 10 11 16 18 19 19 22
27 30 32 33 35 35 35 35 23 28 9 7 17 22 24 20 20 27 11 16 14 8 10 5 4 4 4 4 5 4 3 6 4 2 5 12 21 21 20 18 23 27 17 14
27 28 29 31 36 37 37 39 32 29 5 1 5 16 22 20 31 32 30 19 16 15 10 3 3 3 7 4 4 5 6 5 4 10 7 13 24 10 25 26 21 24 25 17
27 28 30 32 31 35 32 38 37 37 20 3 4 10 13 28 20 31 31 29 27 14 5 1 3 2 2 2 2 2 0 2 3 4 5 3 12 17 21 16 18 17 17 16
24 30 31 32 31 32 34 8 31 38 31 2 1 3 8 26 27 23 25 27 22 21 5 3 5 5 2 2 2 5 5 2 4 6 18 19 19 11 15 16 17 21 18 14
22 31 34 34 34 35 28 7 7 36 31 4 1 3 6 16 23 28 23 26 17 11 9 6 2 1 8 2 2 7 8 10 10 8 16 7 10 10 17 17 10 15 15 11
19 32 36 34 36 33 14 7 15 36 19 5 2 3 4 16 9 8 18 15 16 9 4 6 4 3 2 2 5 8 11 13 8 9 10 11 13 10 11 11 9 10 12 12
34 36 38 40 24 8 13 21 35 26 8 5 3 2 3 11 7 8 12 9 2 4 2 3 5 2 2 4 7 9 11 10 14 15 11 9 8 10 10 12 15 11 13 13
46 42 12 8 16 31 38 18 5 6 5 2 2 4 3 8 5 3 5 4 3 3 3 8 3 2 8 9 8 10 10 10 9 9 6 10 9 9 11 13 11 11 11 12
11 7 10 44 37 18 5 5 4 5 3 5 4 9 2 3 2 3 2 3 2 3 2 3 3 2 2 8 8 9 8 6 4 2 3 4 4 6 9 12 10 12 14 16
14 22 23 11 6 6 3 2 2 1 2 1 1 3 3 4 3 3 0 3 2 3 3 3 2 2 8 9 9 9 9 9 9 7 7 8 11 12 15 17 16 17 18 18
21 8 7 4 7 8 3 2 2 2 3 6 3 3 3 3 5 3 2 3 3 5 3 2 2 6 7 7 9 8 10 12 14 16 16 17 18 18 20 22 22 25 29 29
7 5 6 4 4 3 3 2 1 4 4 7 3 3 3 4 3 3 4 2 3 4 3 2 2 6 7 8 9 13 16 17 20 22 24 26 27 28 28 27 25 25 27 26
8 7 5 4 4 6 8 10 2 8 5 3 4 6 5 4 4 3 3 4 4 2 2 2 9 12 14 15 16 18 21 23 26 26 28 29 29 29 29 27 26 26 28 28
7 10 5 11 2 6 10 12 9 13 7 4 5 3 4 5 3 5 3 3 2 2 2 12 16 16 17 18 19 21 24 26 27 26 26 26 26 26 26 25 24 23 22 22
6 5 18 8 2 5 9 12 14 10 5 3 2 5 4 3 3 3 3 2 1 12 16 18 18 19 18 18 19 20 21 22 23 23 22 22 20 21 21 23 20 19 19 19
Wind_Direction
265 265 262 250 243 245 258 253 242 225 195 193 200 216 188 240 286 305 243 235 238 280 354 344 310 348 10 345 339 74 8 115 183 245 271 282 347 208 185 199 255 238 203 237
263 260 255 244 238 243 243 230 240 238 200 215 207 168 208 238 270 243 305 307 352 317 247 321 297 341 343 4 16 24 301 64 39 101 24 13 42 20 349 301 139 223 241 277
262 256 250 242 232 234 234 234 241 200 212 221 215 181 187 203 231 263 313 313 326 11 18 327 306 337 315 358 343 21 26 86 126 106 233 206 292 316 332 256 288 278 258 269
259 255 246 240 235 236 230 216 217 215 205 225 199 191 200 199 213 213 228 243 206 348 340 349 268 314 324 314 343 328 44 138 143 179 240 258 274 274 283 290 222 246 289 288
257 251 246 238 237 238 233 218 190 198 242 207 198 199 207 207 210 220 207 232 11 216 212 202 253 291 333 301 327 295 354 199 135 212 223 246 271 263 280 273 252 261 270 265
255 251 243 238 239 235 234 229 222 230 214 223 196 205 197 208 203 215 222 215 231 246 255 261 254 253 266 248 290 325 304 145 126 250 98 0 290 214 220 237 228 238 276 315
253 249 244 244 241 235 233 221 199 214 229 205 222 208 203 208 208 215 209 218 190 214 76 333 260 250 259 254 261 216 233 108 75 206 341 210 250 295 224 230 234 235 264 279
252 250 249 247 241 237 233 223 204 209 234 224 210 212 209 211 212 210 216 212 227 244 332 4 324 337 292 249 235 224 185 130 171 190 193 308 292 241 208 195 270 226 267 315
252 249 246 243 240 234 230 225 215 214 220 215 209 199 193 191 207 215 219 230 236 236 118 142 230 225 237 206 229 156 121 128 169 135 148 238 240 5 42 138 281 339 7 316
243 243 242 237 232 228 223 221 220 212 198 212 198 197 193 177 174 188 192 212 214 228 184 202 197 245 275 239 194 169 161 134 222 198 239 273 251 270 341 93 255 301 310 298
238 235 230 229 221 218 216 216 217 208 215 216 195 196 186 175 170 152 169 150 191 180 195 173 185 182 237 225 191 180 159 168 178 181 211 264 221 151 158 223 274 294 303 307
236 231 224 220 221 216 210 214 204 197 203 215 205 204 212 205 206 200 177 188 164 187 157 174 152 191 186 183 225 175 199 182 187 195 209 236 224 244 268 278 258 284 301 318
234 229 227 222 215 213 212 207 209 209 198 172 185 215 201 208 212 208 190 222 215 206 195 166 192 198 137 173 233 202 228 185 222 137 238 255 275 295 311 311 274 279 294 335
230 227 222 216 210 208 208 207 205 206 157 177 215 211 216 220 224 221 217 216 223 244 212 198 178 167 189 196 214 186 204 160 201 259 283 300 288 329 335 319 321 298 261 333
229 223 216 208 206 205 209 202 204 210 186 171 207 201 229 221 221 211 218 219 228 242 228 183 241 200 141 181 91 226 177 322 191 239 64 331 286 319 333 345 358 344 296 268
225 216 207 200 198 192 188 139 198 194 199 215 267 256 233 223 212 210 210 215 218 219 192 222 251 229 190 129 218 61 54 45 339 306 315 310 302 288 303 337 351 333 329 297
214 201 193 190 185 185 184 174 176 189 194 171 294 286 226 209 205 210 219 215 212 221 208 213 187 273 175 155 205 31 348 317 321 329 338 343 340 322 325 338 324 321 314 322
165 167 171 169 170 174 142 128 137 169 172 139 220 246 193 173 165 163 194 197 200 198 212 164 184 128 81 222 12 356 340 318 297 300 325 305 307 310 343 349 8 342 345 1
135 143 151 143 133 104 105 120 153 159 153 174 202 221 187 165 155 147 167 164 132 206 183 178 137 85 82 24 350 339 334 326 316 306 310 280 316 340 2 10 25 29 29 32
112 126 109 97 126 124 126 126 118 160 229 216 222 150 236 179 176 142 129 151 143 180 196 104 72 77 93 24 351 326 322 325 336 342 338 338 353 359 10 36 39 48 56 62
67 70 78 118 133 133 119 132 152 163 200 195 249 204 165 146 161 135 108 161 145 168 119 97 103 111 39 359 0 349 344 349 10 8 0 25 28 42 49 53 61 75 83 90
112 116 120 92 55 50 82 87 114 160 145 103 271 72 83 75 75 94 112 104 99 101 62 69 67 58 10 11 18 17 24 44 57 63 70 76 85 80 84 81 80 87 95 98
113 62 58 27 358 42 59 131 49 55 14 355 359 62 57 73 68 71 90 98 73 101 57 73 40 43 23 32 44 51 69 78 86 86 87 87 90 91 89 95 99 106 107 108
66 59 55 82 1 22 20 331 301 333 333 355 56 78 52 28 56 10 82 31 53 68 72 106 73 79 78 81 91 94 91 94 93 93 95 93 92 94 97 99 103 102 99 99
61 42 49 53 344 6 340 0 19 358 341 34 105 59 60 24 66 22 81 47 63 65 142 94 95 104 101 98 99 100 99 100 98 97 96 97 99 99 99 100 102 102 102 99
61 43 22 351 19 345 1 359 356 8 16 70 57 80 63 48 51 49 20 81 106 190 91 114 122 114 113 112 111 107 106 103 102 100 100 100 97 98 100 100 94 93 93 94
48 36 20 18 337 312 330 343 332 355 10 55 38 57 48 68 55 56 23 117 152 105 101 121 125 122 119 117 113 109 107 106 104 104 102 101 105 106 100 94 94 93 92 92